Probability
3 3 3 5 7 6 5 4 2 0 0 1 2 2 2 2 1 1 1 1 0 0 0 0 0 0 0 0 0 0 0 0 0 0 1 1 1 0
2 2 3 3 4 4 3 3 2 0 0 0 1 1 1 1 0 0 0 0 0 0 0 0 0 0 0 0 0 0 0 0 0 0 0 0 0 0
1 2 2 2 1 1 1 1 1 0 0 0 0 0 0 0 0 0 0 0 0 0 0 0 0 0 0 0 0 0 0 0 0 0 0 0 0 0
1 1 1 1 0 0 0 1 1 0 0 0 0 0 0 0 0 1 0 0 0 0 0 0 0 0 0 0 0 0 0 0 0 0 0 0 0 0
1 0 0 0 0 0 0 1 1 0 0 0 0 0 0 0 0 0 0 0 0 0 0 0 0 0 0 0 0 0 0 0 0 0 0 0 0 0
0 0 0 0 0 0 0 0 0 0 0 0 0 0 0 0 0 0 0 0 0 0 0 0 0 0 0 0 0 0 0 0 0 0 0 0 0 0
0 0 0 0 0 0 0 0 0 0 0 0 0 0 0 0 0 0 0 0 0 0 0 0 0 0 0 0 0 0 0 0 0 0 0 0 0 0
0 0 0 0 0 0 0 0 0 0 0 0 0 0 0 0 0 0 0 0 0 0 0 0 0 0 0 0 0 0 0 0 0 0 0 0 0 0
0 1 1 0 0 0 0 0 0 0 0 0 0 0 0 0 0 0 0 0 0 0 0 0 0 0 1 0 0 0 0 0 0 0 0 0 0 0
1 1 1 0 0 0 0 0 0 0 0 0 0 0 0 0 0 0 0 0 0 0 0 0 0 0 0 0 0 0 0 0 0 0 0 0 0 0
0 1 1 0 0 0 0 0 0 0 0 0 0 0 0 0 0 0 0 0 0 0 0 0 0 0 0 0 0 0 0 0 0 0 0 0 0 0
0 0 0 0 0 0 0 0 0 0 0 0 0 0 0 0 0 0 0 0 0 0 0 0 0 0 0 0 0 0 0 0 0 0 0 0 0 0
0 0 0 0 0 0 0 0 0 0 0 0 0 0 0 0 0 0 1 2 2 1 1 1 0 0 0 0 0 0 0 0 0 0 0 0 0 0
0 0 0 0 0 0 0 0 0 0 0 0 0 0 0 0 0 0 1 2 3 2 2 1 0 0 0 0 0 0 0 0 0 0 0 0 0 0
0 0 0 0 0 0 0 0 0 0 0 0 0 0 0 0 0 0 1 1 1 1 1 1 0 0 0 0 0 0 0 0 0 0 0 0 0 0
0 0 0 0 0 0 0 0 0 0 0 0 0 0 0 0 0 0 1 0 0 0 0 0 0 0 0 0 0 0 0 0 0 0 0 0 0 0
0 0 0 0 0 0 0 0 0 0 0 0 0 0 0 0 0 0 1 0 0 0 0 0 0 0 0 0 0 0 0 0 0 0 0 0 0 0
1 1 0 0 0 1 0 0 0 0 0 0 0 0 0 0 0 0 0 0 0 0 0 0 0 0 0 0 0 0 0 0 0 0 0 0 0 0
0 0 0 0 1 1 0 0 0 0 0 0 0 0 0 0 0 0 0 0 0 0 0 0 0 0 0 0 0 0 0 0 0 0 0 0 0 0
0 0 0 1 1 0 0 0 0 0 0 0 0 0 0 0 0 0 0 0 0 0 0 0 0 0 0 0 0 0 0 0 0 0 0 0 0 0
0 0 0 1 1 0 0 0 0 0 0 0 0 0 0 0 0 0 0 0 0 0 0 0 0 0 0 0 0 0 0 0 0 0 0 0 0 0
0 0 0 0 0 0 0 0 0 0 0 0 0 0 0 0 0 0 0 0 0 0 0 0 0 0 0 0 0 0 0 0 0 0 0 0 0 0
0 0 0 0 0 0 0 0 0 0 0 0 0 0 0 0 0 0 0 0 0 0 0 0 0 0 0 0 0 0 0 0 0 0 0 0 0 0
Wind_Speed
4 4 3 3 3 3 3 3 3 4 4 3 2 2 2 2 3 3 3 8 9 9 9 9 10 11 11 10 10 10 11 11 12 13 14 14 14 15
3 3 3 3 3 3 2 2 2 3 4 3 2 2 2 2 3 2 3 7 9 10 10 10 10 10 11 11 11 11 11 11 11 12 13 14 14 14
3 3 3 3 3 3 2 2 2 2 3 3 2 2 2 2 1 2 3 4 5 10 10 10 10 10 10 10 10 11 11 11 12 12 12 13 13 13
3 3 3 3 2 2 2 3 2 2 3 4 3 2 2 2 2 2 3 3 3 7 10 10 11 11 11 10 10 11 11 12 12 12 12 12 13 13
2 2 2 2 3 2 2 2 2 3 2 2 3 3 2 2 2 3 3 2 4 4 8 10 10 11 11 10 10 10 11 12 12 12 12 12 12 12
2 2 2 2 3 2 2 2 2 2 2 3 3 3 2 3 2 2 2 2 3 3 3 4 7 9 10 10 10 10 11 12 12 12 12 12 12 12
3 2 2 2 3 3 3 3 3 2 2 2 3 3 3 2 2 2 3 2 3 2 2 2 2 3 5 7 9 10 10 11 12 13 13 12 12 12
3 3 3 3 5 4 4 5 4 3 3 3 3 3 3 3 3 3 3 3 3 2 1 3 2 2 3 3 6 8 10 11 12 12 12 13 13 13
2 2 3 4 4 4 4 5 4 5 5 4 4 4 4 3 3 4 3 3 4 3 2 3 2 3 3 3 4 6 8 10 11 12 12 12 12 12
2 2 2 3 5 5 4 4 3 3 4 3 4 5 5 4 3 4 4 4 4 3 2 3 2 2 3 2 4 5 7 9 10 11 12 12 11 12
3 3 3 3 5 7 4 4 5 4 4 5 6 7 8 8 4 3 3 3 4 3 2 2 3 2 2 2 3 4 6 8 9 10 11 11 11 10
2 2 4 4 4 6 4 4 5 5 5 6 5 5 5 5 5 4 3 3 3 3 2 2 2 2 2 2 2 2 3 5 7 9 9 10 10 6
3 2 2 3 5 6 5 4 6 6 5 5 4 3 2 2 2 2 3 3 3 3 3 2 2 2 2 2 2 2 2 2 3 4 7 9 9 8
4 3 3 5 7 8 6 6 8 7 4 4 3 3 3 2 2 2 3 3 4 5 5 3 3 3 3 3 3 2 1 1 2 2 3 5 8 9
3 6 6 7 7 6 6 7 6 3 3 3 3 3 3 3 3 2 2 3 3 4 4 2 3 3 2 3 3 2 2 2 2 2 2 3 4 4
4 6 7 6 5 6 5 3 2 2 3 3 3 3 3 3 2 2 2 3 3 3 3 2 2 2 2 3 2 3 2 2 2 3 2 2 3 3
6 5 3 3 3 3 3 2 2 2 2 3 3 3 3 2 3 3 2 3 3 3 3 2 2 2 2 2 2 2 2 2 2 2 2 3 3 3
5 4 4 3 4 4 3 3 2 2 3 2 3 3 3 3 3 3 3 3 3 3 3 3 2 2 3 3 3 3 2 2 2 3 3 3 3 3
3 3 3 3 3 3 3 3 4 3 3 3 3 3 3 3 3 3 3 4 4 3 3 3 3 3 4 4 3 3 3 3 3 3 3 3 3 3
3 3 3 3 4 4 3 3 3 3 3 3 3 3 3 3 3 3 3 4 4 4 4 3 3 3 3 4 4 4 5 4 3 3 3 3 2 2
3 3 3 3 3 3 3 3 3 3 4 3 3 4 4 3 3 3 3 5 4 4 4 4 3 5 4 3 3 3 3 4 4 3 3 2 2 2
4 4 4 4 4 3 3 4 4 4 4 4 4 4 4 3 4 4 4 4 4 4 4 4 3 3 3 3 4 4 3 2 3 4 4 3 2 2
3 3 3 4 4 4 4 4 5 4 4 4 5 5 5 4 4 4 4 4 4 4 5 4 4 3 3 3 3 3 4 3 1 1 2 3 5 4
Wind_Direction
264 263 265 267 270 270 266 262 266 285 288 280 262 243 232 214 202 213 204 210 212 213 215 219 222 225 228 230 232 234 237 236 234 231 229 229 231 230
265 270 277 281 276 274 274 281 272 267 281 291 287 284 280 264 216 223 223 207 211 215 217 220 223 227 229 230 232 231 232 232 233 232 231 230 231 232
281 276 276 288 299 302 303 288 278 276 278 293 300 297 279 279 251 240 242 210 207 215 219 220 222 225 229 231 234 232 229 228 228 229 231 231 230 232
292 303 305 304 310 305 305 299 291 281 276 286 291 293 291 267 255 247 260 240 230 215 217 224 226 226 227 229 232 231 227 224 225 225 227 229 228 229
308 309 311 321 312 301 290 297 299 298 288 285 290 290 295 297 293 279 271 260 255 232 220 225 228 229 227 229 232 231 227 222 221 222 223 225 227 227
336 338 334 320 303 301 293 294 294 295 291 287 284 291 293 293 307 296 290 283 282 271 254 238 228 227 228 233 235 231 226 222 220 219 219 220 222 224
353 358 346 347 342 320 320 318 312 301 300 300 299 308 306 318 316 301 302 301 285 275 283 268 235 226 230 236 240 236 227 223 220 218 216 217 220 222
352 342 334 358 349 338 326 314 308 304 306 303 301 297 299 303 306 301 303 304 296 277 269 278 259 244 239 230 228 222 219 220 220 218 217 217 218 219
331 331 337 351 356 338 320 312 304 277 263 267 281 285 288 292 297 296 290 286 281 279 276 276 260 254 249 250 226 216 214 214 215 214 215 215 215 217
327 335 345 355 355 339 326 328 320 307 283 264 269 276 284 282 278 279 274 280 280 273 261 270 275 271 271 257 237 229 218 213 209 208 209 211 213 215
357 23 13 22 357 348 337 329 321 313 304 294 277 275 279 278 273 288 282 278 287 283 259 260 270 272 276 272 261 250 232 220 215 212 210 209 208 210
359 48 39 16 351 345 333 322 316 315 319 313 296 281 273 273 259 240 261 274 287 294 291 288 291 296 290 263 241 234 233 233 224 220 217 213 203 200
342 351 7 341 331 325 315 296 292 301 303 297 295 296 296 289 266 251 257 256 272 281 289 303 302 300 280 285 279 244 221 225 217 227 221 215 205 197
332 340 342 324 319 312 307 295 300 304 300 306 310 316 318 313 303 281 270 256 248 250 261 262 264 268 279 284 287 277 252 241 218 218 206 202 210 213
330 332 323 307 308 303 294 295 301 307 310 314 318 320 318 315 315 312 301 282 277 276 283 269 264 266 264 270 277 281 279 264 236 233 219 199 200 199
326 319 310 299 299 306 314 311 304 320 321 317 318 317 322 329 329 327 323 316 309 305 301 293 285 281 271 267 263 270 265 255 249 235 227 231 222 205
321 302 304 320 324 322 323 324 319 314 310 309 312 321 330 335 329 327 322 319 321 320 321 326 318 293 267 262 264 261 258 262 257 250 239 244 238 216
321 314 328 329 329 329 330 333 334 339 332 323 324 330 332 331 330 330 328 324 324 324 323 322 318 314 310 297 257 266 270 268 267 260 249 243 246 223
310 314 321 323 327 334 339 346 350 346 341 344 345 336 331 333 334 330 327 326 324 321 319 320 321 318 306 300 288 253 258 266 265 263 253 245 243 228
303 318 326 331 332 336 344 348 344 346 350 348 346 337 331 329 328 326 325 328 325 321 319 316 312 305 296 292 290 283 258 250 252 255 258 251 237 193
319 321 327 330 335 344 344 341 344 351 354 350 346 335 327 327 328 327 326 322 317 313 311 303 292 287 281 286 284 279 267 251 239 235 241 240 242 225
333 340 345 345 346 351 352 346 345 353 354 349 341 331 330 331 328 323 324 321 319 319 315 307 302 301 298 294 294 292 290 274 246 243 244 226 212 211
346 339 341 347 351 350 352 345 344 352 355 348 339 335 335 334 327 325 326 325 327 328 324 321 318 317 315 307 306 304 306 297 267 225 249 238 209 200